Hourly Data Report for September 06, 2020

SHEARWATER RCS
NOVA SCOTIA
Current Station Operator: ECCC - MSC

44°37'47.000" N
63°30'48.000" W
24.00 m
8205092
71264
AAW

Download Data

Hourly Data (September 2020)
Hourly Data Report for September 6, 2020
TIME Temp Definition
°C
Dew Point Definition
°C
Rel Hum Definition
%
Wind Dir Definition
10's deg

Wind Spd Definition
km/h
Visibility Definition
km
Stn Press Definition
kPa
Hmdx Definition


Wind Chill Definition


Weather Definition


00:00 14.9 8.2 64 27 7   101.69     LegendNANA
01:00 13.6 8.3 70 31 5   101.69     LegendNANA
02:00 12.4 8.4 76 30 5   101.69     LegendNANA
03:00 12.4 8.4 76 32 7   101.70     LegendNANA
04:00 12.0 8.7 80 32 9   101.72     LegendNANA
05:00 11.4 8.5 82 32 7   101.74     LegendNANA
06:00 12.6 8.7 77 31 7   101.79     LegendNANA
07:00 14.6 9.8 73 29 7   101.84     LegendNANA
08:00 15.8 10.1 69 25 5   101.88     LegendNANA
09:00 18.1 10.9 63 25 4   101.90     LegendNANA
10:00 19.9 12.1 61 21 4   101.87     LegendNANA
11:00 21.5 12.3 56 17 11   101.85     LegendNANA
12:00 22.1 9.3 44 22 15   101.81     LegendNANA
13:00 22.3 7.7 39 21 20   101.86     LegendNANA
14:00 21.8 7.8 40 21 23   101.88     LegendNANA
15:00 21.5 7.6 41 21 18   101.90     LegendNANA
16:00 21.4 7.8 41 22 18   101.91     LegendNANA
17:00 20.4 9.0 48 22 17   101.92     LegendNANA
18:00 18.7 9.6 55 20 16   101.95     LegendNANA
19:00 17.0 10.9 67 17 6   101.99     LegendNANA
20:00 16.1 12.5 79 28 6   102.03     LegendNANA
21:00 15.6 13.2 86 21 6   102.07     LegendNANA
22:00 14.9 13.2 89 27 5   102.08     LegendNANA
23:00 14.5 12.9 90 18 4   102.08     LegendNANA

Notes on Data Quality.

Legend

  • E = Estimated
  • M = Missing
  • NA = Not Available*
  • [empty] = Indicates an unobserved value
Date modified: